Location: Windsor
(43.2292°N, 89.3015°W)
Time: 14:00:16
(UTC+00:00)

BlueWalker 3 - Visible Passes

Search period start: 02 December 2022 00:00
Search period end: 12 December 2022 00:00
Orbit: 500 x 519 km, 53.2° (Epoch: 01 December)

Date Brightness Start Highest point End Pass type
(mag) Time Alt. Az. Time Alt. Az. Time Alt. Az.
02 Dec 3.9 00:16:15 10° NW 00:18:55 19° N 00:18:55 19° N visible
02 Dec 3.7 23:57:54 10° NW 00:00:44 19° N 00:01:16 18° NNE visible
03 Dec 3.7 23:39:33 10° NW 23:42:23 19° N 23:43:38 16° NNE visible
04 Dec 5.0 01:18:19 10° NW 01:18:28 11° NW 01:18:28 11° NW visible
04 Dec 3.7 23:21:10 10° NW 23:24:02 19° N 23:26:02 14° NE visible
05 Dec 4.5 00:59:54 10° NW 01:00:52 16° NW 01:00:52 16° NW visible
05 Dec 3.7 23:02:48 10° NW 23:05:40 19° N 23:08:29 10° NE visible
06 Dec 3.8 00:41:30 10° NW 00:43:20 23° NNW 00:43:20 23° NNW visible
07 Dec 3.0 00:23:05 10° NW 00:25:51 33° N 00:25:51 33° N visible
08 Dec 2.4 00:04:40 10° NW 00:08:24 41° NNE 00:08:29 41° NNE visible
08 Dec 2.4 23:46:14 10° NW 23:50:00 43° NNE 23:51:15 32° ENE visible
09 Dec 4.8 01:25:05 10° WNW 01:26:06 16° WNW 01:26:06 16° WNW visible
09 Dec 2.3 23:27:48 10° NW 23:31:35 45° NNE 23:34:12 18° E visible
10 Dec 4.1 01:06:41 10° WNW 01:09:05 26° WSW 01:09:05 26° WSW visible
10 Dec 2.2 23:09:22 10° NW 23:13:10 48° NNE 23:16:56 10° ESE visible
11 Dec 3.7 00:48:18 10° WNW 00:51:41 28° SW 00:52:19 27° SSW visible
11 Dec 2.2 22:50:55 10° NW 22:54:45 50° NNE 22:58:32 10° ESE visible
